[[{"header":{"parameterUnit":"m.s-1","parameterCategory":2,"la1":30.2991,"la2":30.254,"lo1":-89.0895,"lo2":-89.0444,"dy":0.0017,"dx":0.0017,"nx":28,"ny":28,"refTime":"2025-03-15T21:00:00:Z","depth":"0","parameterNumber":2,"parameterNumberName":"U-component_of_CURRENTS"},"data":[0,0,0,0,0,0,0,0,0,0,0,0,0,0,0,0,0,0,0,0,0,0,0,0,0,0,0,0,0,0,0,0,0,0,0,0,0,0,0,0,0,0,0,0,0,0,0,0,0,0,0,0,0,0,0,0,0,0,0.2502,0.2502,0,0.2557,0.2557,0.2558,0.2566,0.2566,0.2565,0.2565,0.2605,0.2607,0.2608,0,0,0,0,0,0,0,0,0,0,0,0,0,0.2393,0.2395,0.2502,0.2503,0.2503,0.2556,0.2557,0.2558,0.2566,0.2566,0.2565,0.2565,0.2605,0.2606,0.2608,0,0,0,0,0,0,0,0,0,0,0,0,0,0.2442,0.2396,0.2502,0.2515,0.2517,0.2556,0.2557,0.2558,0.2566,0.2566,0.2565,0.2565,0.2604,0.2606,0.2608,0.2632,0,0,0.2615,0.2616,0,0,0,0,0,0,0,0,0.2439,0.2446,0.2512,0.2514,0.2516,0.2555,0.2534,0.2582,0.2566,0.2546,0.2565,0.2564,0.2589,0.2592,0.2601,0.2634,0.2635,0.2615,0.2616,0.2617,0.2618,0,0,0,0,0,0,0,0.2436,0.2443,0.2522,0.2513,0.2516,0.2515,0.2521,0.2543,0.2568,0.2548,0.2549,0.2557,0.2589,0.2599,0.2602,0.2636,0.2615,0.2617,0.2618,0.2619,0.2729,0.2731,0,0,0,0,0,0,0.2434,0.2441,0.252,0.2524,0.2477,0.2517,0.2524,0.2542,0.2568,0.2572,0.2558,0.2558,0.2596,0.26,0.2604,0.267,0.2617,0.2619,0.262,0.2728,0.273,0.2732,0,0,0,0,0,0,0.2431,0.2441,0.2518,0.2484,0.2494,0.252,0.254,0.2543,0.2555,0.2576,0.258,0.2566,0.2596,0.2601,0.2636,0.267,0.262,0.2622,0.2726,0.2728,0.2731,0.278,0,0,0,0,0,0,0.2428,0.244,0.2452,0.2484,0.2496,0.2547,0.2541,0.2545,0.2562,0.2562,0.2585,0.2588,0.2596,0.2633,0.2638,0.2672,0.2624,0.2724,0.2727,0.273,0.2776,0.2783,0.279,0,0,0,0,0,0.2424,0.2447,0.2452,0.2462,0.2512,0.2548,0.2554,0.2569,0.2563,0.2576,0.2594,0.2587,0.2657,0.2636,0.2642,0.2677,0.2722,0.2726,0.273,0.2773,0.2782,0.279,0,0,0,0,0,0,0.2407,0.2451,0.2457,0.2492,0.2519,0.255,0.2568,0.2572,0.2596,0.2598,0.2607,0.2612,0.2659,0.2661,0.2638,0.2719,0.2689,0.2694,0.272,0.2729,0.2736,0.275,0.2625,0,0,0,0,0,0.2409,0.2437,0.2473,0.2501,0.2517,0.2541,0.2556,0.2568,0.2593,0.2603,0.2618,0.2643,0.268,0.2696,0.2724,0.2764,0.2776,0.2792,0.2799,0.2805,0.2822,0.2878,0.2891,0.2744,0.2744,0.2744,0,0,0.2405,0.2438,0.245,0.2498,0.2522,0.2557,0.2549,0.2581,0.2613,0.2605,0.265,0.2667,0.2697,0.2748,0.2769,0.2753,0.285,0.281,0.2815,0.2828,0.2883,0.2897,0.291,0.2746,0.2746,0.2746,0,0,0.2421,0.2447,0.2476,0.2506,0.2548,0.2569,0.2578,0.2614,0.2634,0.2677,0.2688,0.2727,0.2768,0.2806,0.2828,0.2891,0.2887,0.2894,0.2942,0.2996,0.3009,0.302,0.3038,0.3051,0.2897,0.2897,0.2897,0,0.2412,0.246,0.2488,0.2529,0.2557,0.2576,0.2612,0.2644,0.2684,0.2713,0.2699,0.279,0.2804,0.2888,0.291,0.2909,0.2924,0.2905,0.3006,0.3017,0.3028,0.3044,0.3057,0.29,0.2899,0.2899,0.2899,0,0.2455,0.249,0.2513,0.2572,0.2606,0.264,0.2689,0.2723,0.2743,0.2774,0.2851,0.2879,0.2934,0.2946,0.2948,0.3038,0.3017,0.3007,0.2982,0.3046,0.3058,0.3071,0.2904,0.2903,0.2902,0.2901,0,0,0.2419,0.2522,0.2522,0.2562,0.263,0.2663,0.273,0.2797,0.2844,0.2889,0.2955,0.3024,0.3034,0.3062,0.3072,0.3118,0.3194,0.3095,0.3097,0.311,0.3293,0.3211,0.3217,0.3201,0.3204,0.3207,0.3265,0,0.2433,0.2515,0.2563,0.263,0.2674,0.2727,0.2787,0.2853,0.2903,0.2971,0.3028,0.3089,0.3081,0.3105,0.3159,0.3194,0.3234,0.3178,0.3233,0.3235,0.3152,0.3232,0.3159,0.32,0.3277,0.3279,0.3281,0,0.2439,0.25,0.2571,0.2671,0.2694,0.2735,0.2833,0.2892,0.2998,0.3039,0.3119,0.3156,0.3251,0.3217,0.333,0.3294,0.3302,0.3316,0.3318,0.3238,0.3178,0.3153,0.322,0.3183,0.33,0.3299,0.3297,0,0.2388,0.2492,0.2552,0.2586,0.2704,0.2745,0.2801,0.2903,0.2972,0.3078,0.3142,0.3242,0.331,0.3354,0.3397,0.3369,0.3498,0.3459,0.3392,0.3384,0.3333,0.3315,0.337,0.3531,0.3531,0.3531,0.353,0,0.2375,0.2409,0.2532,0.2563,0.2633,0.272,0.2798,0.2869,0.2989,0.3073,0.317,0.3254,0.3352,0.3436,0.3437,0.3467,0.3537,0.3423,0.341,0.3343,0.3327,0.3297,0.3256,0.3533,0.3532,0.3532,0.3531,0,0.2293,0.2375,0.2446,0.2573,0.2609,0.2652,0.2787,0.2851,0.2971,0.3086,0.3128,0.3302,0.3397,0.3471,0.3551,0.3524,0.3453,0.3524,0.342,0.3394,0.325,0.3212,0.3087,0.2998,0.3453,0.3451,0.345,0,0.2258,0.2291,0.2428,0.2469,0.2519,0.2604,0.2665,0.2808,0.2883,0.3099,0.3151,0.3308,0.3387,0.3494,0.3482,0.3483,0.3403,0.3399,0.3328,0.3255,0.3206,0.3053,0.2978,0.3277,0.3275,0.3273,0.3271,0,0.2187,0.2237,0.2308,0.2399,0.2465,0.2547,0.2643,0.2704,0.2874,0.2978,0.311,0.3195,0.3333,0.3332,0.3366,0.3348,0.3251,0.3351,0.3333,0.3124,0.2909,0.2813,0.3203,0.3253,0.3254,0.3256,0.3257,0.3258,0.2121,0.2153,0.2253,0.2328,0.2403,0.2465,0.2485,0.2599,0.2694,0.2817,0.2966,0.3046,0.3197,0.3233,0.3201,0.3147,0.3075,0.3084,0.306,0.2923,0.2787,0.3109,0.3102,0.3102,0.3103,0.3104,0.3105,0,0.2042,0.2101,0.2175,0.2264,0.2299,0.237,0.2454,0.2452,0.2493,0.2642,0.2722,0.2861,0.2912,0.3006,0.3032,0.2922,0.2775,0.2852,0.2675,0.2627,0.2997,0.2943,0.2832,0.2832,0.2832,0.2833,0.2833,0.2833,0.201,0.2047,0.2101,0.214,0.2186,0.2182,0.2194,0.2201,0.227,0.2329,0.2407,0.2515,0.2782,0.2912,0.2862,0.2788,0.2605,0.246,0.2428,0.2773,0.2795,0.2815,0.2759,0.2611,0.2611,0.1987,0.1983,0.1979]},{"header":{"parameterUnit":"m.s-1","parameterCategory":2,"la1":30.2991,"la2":30.254,"lo1":-89.0895,"lo2":-89.0444,"dy":0.0017,"dx":0.0017,"nx":28,"ny":28,"refTime":"2025-03-15T21:00:00:Z","depth":"0","parameterNumber":3,"parameterNumberName":"V-component_of_CURRENTS"},"data":[0,0,0,0,0,0,0,0,0,0,0,0,0,0,0,0,0,0,0,0,0,0,0,0,0,0,0,0,0,0,0,0,0,0,0,0,0,0,0,0,0,0,0,0,0,0,0,0,0,0,0,0,0,0,0,0,0,0,0.0073,0.0073,0,0.0028,0.0027,0.0026,-0.0019,-0.0019,-0.002,-0.002,-0.0097,-0.0098,-0.01,0,0,0,0,0,0,0,0,0,0,0,0,0,0.0092,0.0092,0.0073,0.0073,0.0073,0.0028,0.0027,0.0026,-0.0019,-0.0019,-0.002,-0.002,-0.0096,-0.0098,-0.01,0,0,0,0,0,0,0,0,0,0,0,0,0,0.0067,0.0092,0.0073,0.0047,0.0044,0.0028,0.0027,0.0026,-0.0019,-0.0019,-0.002,-0.0021,-0.0096,-0.0098,-0.0101,-0.0105,0,0,-0.0108,-0.0109,0,0,0,0,0,0,0,0,0.0068,0.0066,0.0051,0.0048,0.0045,0.0012,0.0006,-0.0019,-0.0019,0.0002,-0.002,-0.0021,-0.0061,-0.0067,-0.0077,-0.0109,-0.0112,-0.0109,-0.011,-0.0111,-0.0112,0,0,0,0,0,0,0,0.007,0.0068,0.0053,0.0051,0.0047,0.0027,0.0023,0.0001,-0.0028,0.0,-0.0002,-0.0003,-0.0064,-0.0075,-0.0079,-0.0113,-0.0108,-0.0111,-0.0112,-0.0113,-0.0145,-0.0144,0,0,0,0,0,0,0.0083,0.007,0.0054,0.0052,0.0059,0.0027,0.0022,0.0021,-0.0028,-0.0034,-0.0003,-0.0005,-0.007,-0.0076,-0.0082,-0.0074,-0.0111,-0.0114,-0.0115,-0.0146,-0.0145,-0.0144,0,0,0,0,0,0,0.0084,0.0082,0.0056,0.0061,0.0057,0.0028,0.0026,0.002,0.0012,-0.0029,-0.0037,-0.0004,-0.0071,-0.0079,-0.0097,-0.0078,-0.0115,-0.0117,-0.0147,-0.0146,-0.0145,-0.0067,0,0,0,0,0,0,0.0084,0.0083,0.0084,0.0062,0.0057,0.0057,0.0027,0.002,0.0013,0.001,-0.0033,-0.0041,-0.0072,-0.0093,-0.0099,-0.0082,-0.0119,-0.0147,-0.0146,-0.0145,-0.007,-0.0063,-0.0057,0,0,0,0,0,0.0085,0.0094,0.0084,0.0082,0.006,0.0058,0.0053,0.0029,0.0014,0.0017,-0.0014,-0.004,-0.0089,-0.0094,-0.0102,-0.0085,-0.0148,-0.0146,-0.0145,-0.0073,-0.0065,-0.0058,0,0,0,0,0,0,0.0104,0.009,0.0078,0.0082,0.0075,0.0051,0.0051,0.0036,0.0014,0.0007,-0.0034,-0.0043,-0.0053,-0.0079,-0.0083,-0.0091,-0.0122,-0.0122,-0.0064,-0.0057,-0.005,-0.0034,-0.0121,0,0,0,0,0,0.0109,0.0109,0.0097,0.0099,0.0099,0.0076,0.0071,0.0057,0.0036,0.0026,-0.0002,-0.0032,-0.0053,-0.0062,-0.0089,-0.0091,-0.0117,-0.0085,-0.0078,-0.0072,-0.0064,-0.0085,-0.008,-0.0139,-0.0139,-0.0139,0,0,0.0116,0.011,0.0108,0.0103,0.0093,0.0103,0.0071,0.007,0.0079,0.0021,0.0021,-0.0013,-0.005,-0.0055,-0.0061,-0.0073,-0.0069,-0.007,-0.0065,-0.006,-0.0083,-0.0077,-0.0072,-0.0138,-0.0138,-0.0139,0,0,0.0139,0.0127,0.0138,0.0138,0.0132,0.0123,0.0128,0.0111,0.0103,0.0098,0.006,0.0041,0.0008,-0.001,-0.0024,0.0004,-0.0037,-0.0005,0.0046,0.0026,0.003,0.0034,0.0011,0.0013,0.0003,0.0003,0.0003,0,0.015,0.0161,0.0142,0.0158,0.0164,0.0139,0.0161,0.0153,0.0132,0.0134,0.0107,0.0067,0.0032,0.0035,0.0041,0.002,-0.0002,0.0021,0.0035,0.0038,0.0041,0.0016,0.0017,0.0007,0.0006,0.0006,0.0006,0,0.0182,0.0193,0.0202,0.0214,0.022,0.0233,0.0228,0.0235,0.0219,0.0205,0.0198,0.0149,0.0127,0.0115,0.0083,0.0093,0.0068,0.0043,0.0018,0.0052,0.0023,0.0022,0.0012,0.0011,0.001,0.0009,0,0,0.0208,0.0222,0.0227,0.0247,0.0251,0.0266,0.029,0.0305,0.0329,0.0294,0.0315,0.0269,0.0235,0.0217,0.0177,0.016,0.0154,0.0115,0.0112,0.0098,0.0108,0.0084,0.008,0.0131,0.0131,0.0132,0.0081,0,0.0243,0.0282,0.0281,0.0329,0.0353,0.035,0.0381,0.039,0.0382,0.0395,0.0348,0.0338,0.0277,0.0266,0.0241,0.0179,0.0155,0.017,0.0072,0.007,0.0049,0.008,0.0104,0.0061,0.008,0.008,0.008,0,0.0282,0.0304,0.0349,0.0397,0.041,0.0436,0.0485,0.0505,0.0513,0.0507,0.0486,0.044,0.0412,0.0349,0.0266,0.0278,0.02,0.0145,0.0141,0.0092,0.0044,0.0029,0.0058,-0.0064,0.0077,0.0078,0.0078,0,0.0317,0.0361,0.04,0.0412,0.0456,0.0487,0.0513,0.0536,0.0576,0.057,0.0596,0.0533,0.0521,0.0419,0.0298,0.0282,0.0202,0.0163,0.0066,0.0063,0.0052,0.0047,-0.0043,0.0098,0.0098,0.0098,0.0098,0,0.0359,0.0397,0.042,0.0445,0.0514,0.0524,0.0599,0.0617,0.0658,0.0724,0.065,0.0687,0.0538,0.0472,0.0338,0.0209,0.0229,0.0084,0.0054,0.0079,0.0078,-0.0056,-0.0143,0.0096,0.0096,0.0097,0.0097,0,0.0396,0.0406,0.0462,0.0509,0.0531,0.0579,0.0667,0.0728,0.075,0.0837,0.0841,0.081,0.0724,0.0564,0.0406,0.0279,0.0066,0.0081,0.0119,0.0094,-0.0113,-0.0196,-0.031,-0.0383,-0.0027,-0.0028,-0.0029,0,0.0419,0.0444,0.0506,0.055,0.0575,0.0648,0.0716,0.0766,0.0843,0.0925,0.0983,0.0923,0.0917,0.0671,0.0418,0.0182,0.0045,0.004,0.0008,-0.0113,-0.0227,-0.0261,-0.0318,0.0021,0.0021,0.0021,0.0021,0,0.0464,0.0478,0.0524,0.0607,0.068,0.0776,0.0874,0.0955,0.1038,0.1127,0.1224,0.1221,0.0989,0.0775,0.0434,0.0254,-0.0042,0.0028,-0.0101,-0.0198,-0.0236,-0.0324,0.0034,0.0019,0.0019,0.0019,0.0019,0.0019,0.0499,0.0538,0.0593,0.068,0.077,0.09,0.1006,0.1129,0.1276,0.1439,0.1409,0.1464,0.1131,0.0676,0.0395,-0.006,-0.0074,-0.018,-0.027,-0.0292,-0.0363,-0.0011,-0.006,-0.006,-0.0061,-0.0061,-0.0061,0,0.0543,0.059,0.0669,0.0783,0.0897,0.0936,0.1118,0.1248,0.1447,0.1591,0.1682,0.1587,0.1156,0.0705,0.0099,-0.025,-0.0389,-0.0454,-0.0497,-0.0544,-0.0227,-0.0224,-0.0304,-0.0304,-0.0304,-0.0304,-0.0304,-0.0303,0.0571,0.0647,0.0688,0.087,0.0965,0.1145,0.1265,0.1457,0.1609,0.1835,0.192,0.194,0.1632,0.0466,-0.028,-0.0483,-0.0724,-0.0799,-0.0932,-0.0716,-0.0696,-0.0678,-0.0694,-0.0871,-0.0871,-0.1177,-0.118,-0.1183]}],[{"header":{"parameterUnit":"m.s-1","parameterCategory":2,"la1":30.2991,"la2":30.254,"lo1":-89.0895,"lo2":-89.0444,"dy":0.0017,"dx":0.0017,"nx":28,"ny":28,"refTime":"2025-03-15T21:00:00:Z","depth":"2","parameterNumber":2,"parameterNumberName":"U-component_of_CURRENTS"},"data":[0,0,0,0,0,0,0,0,0,0,0,0,0,0,0,0,0,0,0,0,0,0,0,0,0,0,0,0,0,0,0,0,0,0,0,0,0,0,0,0,0,0,0,0,0,0,0,0,0,0,0,0,0,0,0,0,0,0,0.2095,0.2095,0,0.2161,0.2162,0.2163,0.217,0.2169,0.2169,0.2168,0.2201,0.2203,0.2204,0,0,0,0,0,0,0,0,0,0,0,0,0,0.2011,0.2012,0.2095,0.2096,0.2097,0.2161,0.2162,0.2163,0.217,0.2169,0.2169,0.2168,0.2201,0.2203,0.2204,0,0,0,0,0,0,0,0,0,0,0,0,0,0.2058,0.2012,0.2094,0.2109,0.2111,0.2161,0.2162,0.2163,0.217,0.2169,0.2169,0.2168,0.22,0.2202,0.2205,0.2234,0,0,0.2211,0.2212,0,0,0,0,0,0,0,0,0.2055,0.2061,0.2106,0.2108,0.2111,0.2158,0.2145,0.2185,0.217,0.2146,0.2168,0.2167,0.2185,0.2189,0.2201,0.2235,0.2237,0.2211,0.2212,0.2213,0.2214,0,0,0,0,0,0,0,0.2052,0.2058,0.212,0.2107,0.211,0.2125,0.213,0.2153,0.2168,0.2148,0.2149,0.2159,0.2186,0.2199,0.2202,0.2237,0.2211,0.2213,0.2214,0.2215,0.2324,0.2325,0,0,0,0,0,0,0.2046,0.2055,0.2117,0.2122,0.2082,0.2127,0.2133,0.2142,0.2168,0.2172,0.216,0.216,0.2196,0.22,0.2203,0.2267,0.2213,0.2215,0.2216,0.2322,0.2324,0.2326,0,0,0,0,0,0,0.2044,0.2051,0.2115,0.2091,0.21,0.2129,0.214,0.2144,0.2165,0.2178,0.2181,0.2177,0.2196,0.22,0.223,0.2267,0.2216,0.2218,0.232,0.2323,0.2325,0.2377,0,0,0,0,0,0,0.2041,0.205,0.206,0.2091,0.2102,0.2145,0.2141,0.2146,0.2172,0.2172,0.2193,0.2195,0.2195,0.2227,0.2232,0.2269,0.222,0.2318,0.2321,0.2324,0.2374,0.2381,0.2388,0,0,0,0,0,0.2038,0.2057,0.206,0.2068,0.2113,0.2146,0.2153,0.217,0.2174,0.2185,0.2201,0.2195,0.225,0.223,0.2236,0.2274,0.2317,0.232,0.2324,0.237,0.238,0.2388,0,0,0,0,0,0,0.2031,0.206,0.2064,0.2092,0.2116,0.2147,0.2171,0.2179,0.2203,0.2209,0.2213,0.2217,0.2259,0.226,0.2237,0.2315,0.2284,0.2289,0.2318,0.2327,0.2334,0.2347,0.2221,0,0,0,0,0,0.2033,0.2055,0.208,0.2105,0.2121,0.2148,0.2167,0.2177,0.2201,0.2212,0.2225,0.2248,0.2281,0.2295,0.2317,0.2358,0.2367,0.2388,0.2395,0.2401,0.2417,0.2463,0.2476,0.2338,0.2338,0.2338,0,0,0.2035,0.206,0.2069,0.2105,0.2132,0.2162,0.2157,0.2193,0.2223,0.2213,0.2259,0.2274,0.2297,0.2343,0.2363,0.2347,0.2444,0.2406,0.2411,0.2424,0.2468,0.2482,0.2494,0.2341,0.234,0.234,0,0,0.2056,0.2077,0.2099,0.2123,0.2163,0.2183,0.2194,0.2228,0.2249,0.229,0.2298,0.2334,0.2373,0.2401,0.2421,0.2483,0.2481,0.2491,0.254,0.2584,0.2596,0.2607,0.2628,0.264,0.2494,0.2494,0.2494,0,0.2057,0.2091,0.2112,0.2144,0.2172,0.2194,0.2227,0.2257,0.2294,0.2323,0.231,0.2395,0.2407,0.2481,0.2503,0.2501,0.2517,0.2503,0.2594,0.2604,0.2614,0.2634,0.2646,0.2497,0.2497,0.2496,0.2496,0,0.2091,0.2122,0.2145,0.2191,0.2222,0.2257,0.2296,0.2328,0.2355,0.2386,0.2457,0.2478,0.2529,0.2542,0.2544,0.2627,0.2612,0.2596,0.257,0.2631,0.2647,0.266,0.2501,0.25,0.2499,0.2499,0,0,0.2073,0.2151,0.2155,0.2187,0.225,0.2276,0.2339,0.24,0.2447,0.2487,0.2551,0.2614,0.2628,0.2652,0.2661,0.2701,0.2776,0.2684,0.2685,0.2702,0.2867,0.2788,0.2793,0.2778,0.2781,0.2783,0.2847,0,0.2091,0.2152,0.2192,0.2253,0.2288,0.2336,0.2392,0.2451,0.2503,0.2566,0.2614,0.2679,0.2671,0.2701,0.2744,0.2773,0.2813,0.276,0.2808,0.2809,0.273,0.2807,0.2616,0.2651,0.2858,0.286,0.2862,0,0.2097,0.2143,0.2203,0.2288,0.2309,0.2351,0.2444,0.2499,0.2595,0.2637,0.2712,0.275,0.2836,0.2804,0.2901,0.2869,0.2881,0.2891,0.2893,0.2814,0.2754,0.2626,0.2665,0.2882,0.288,0.2878,0.2877,0,0.2058,0.2145,0.2195,0.2222,0.2322,0.2363,0.2421,0.2519,0.2584,0.269,0.275,0.2838,0.2901,0.2938,0.297,0.2949,0.3051,0.3017,0.2957,0.2951,0.2795,0.277,0.3085,0.3085,0.3085,0.3085,0.3084,0,0.2053,0.2086,0.2181,0.2206,0.2273,0.235,0.2434,0.2501,0.2615,0.2692,0.2788,0.286,0.2943,0.3007,0.3006,0.3024,0.3086,0.2989,0.2975,0.2805,0.2782,0.2983,0.297,0.3087,0.3086,0.3086,0.3086,0,0.1994,0.2057,0.2114,0.222,0.2254,0.23,0.2434,0.2491,0.2615,0.2716,0.276,0.2911,0.2989,0.3043,0.3107,0.3077,0.3088,0.307,0.2856,0.2816,0.2946,0.2936,0.3023,0.3021,0.3019,0.3018,0.3017,0,0.197,0.1994,0.21,0.2136,0.2186,0.2271,0.2325,0.2462,0.2528,0.2728,0.2765,0.291,0.2961,0.304,0.3024,0.3019,0.3061,0.2829,0.2754,0.2969,0.2947,0.2939,0.2931,0.2566,0.2561,0.2557,0.2554,0,0.192,0.1956,0.2008,0.208,0.214,0.2207,0.23,0.2349,0.2503,0.2592,0.2699,0.2767,0.2883,0.2809,0.2836,0.2799,0.2813,0.2748,0.3054,0.2605,0.2541,0.2518,0.2525,0.2519,0.2523,0.2525,0.2527,0.2529,0.1876,0.1893,0.196,0.202,0.2085,0.2121,0.2134,0.2228,0.2298,0.2403,0.2534,0.2565,0.2641,0.2577,0.2503,0.2459,0.264,0.2529,0.254,0.2555,0.2485,0.2422,0.2363,0.2366,0.2368,0.237,0.2371,0,0.1812,0.1842,0.1896,0.1956,0.1975,0.2044,0.2096,0.2077,0.209,0.2213,0.2279,0.2142,0.2136,0.2191,0.2088,0.2097,0.2064,0.2002,0.195,0.1988,0.2022,0.1921,0.1651,0.1648,0.1645,0.1643,0,0,0.1784,0.1792,0.1817,0.1825,0.1866,0.184,0.1836,0.1821,0.1865,0.1845,0.1859,0.2056,0.2148,0.1868,0.1853,0.1731,0.1833,0.1664,0.2256,0.2235,0.2264,0.2356,0.225,0,0,0,0,0]},{"header":{"parameterUnit":"m.s-1","parameterCategory":2,"la1":30.2991,"la2":30.254,"lo1":-89.0895,"lo2":-89.0444,"dy":0.0017,"dx":0.0017,"nx":28,"ny":28,"refTime":"2025-03-15T21:00:00:Z","depth":"2","parameterNumber":3,"parameterNumberName":"V-component_of_CURRENTS"},"data":[0,0,0,0,0,0,0,0,0,0,0,0,0,0,0,0,0,0,0,0,0,0,0,0,0,0,0,0,0,0,0,0,0,0,0,0,0,0,0,0,0,0,0,0,0,0,0,0,0,0,0,0,0,0,0,0,0,0,0.0051,0.0051,0,0.0011,0.001,0.001,-0.003,-0.003,-0.0031,-0.0031,-0.0102,-0.0104,-0.0105,0,0,0,0,0,0,0,0,0,0,0,0,0,0.0067,0.0067,0.0051,0.0051,0.0051,0.0011,0.001,0.001,-0.003,-0.003,-0.0031,-0.0031,-0.0102,-0.0103,-0.0105,0,0,0,0,0,0,0,0,0,0,0,0,0,0.0045,0.0067,0.0052,0.0028,0.0025,0.0011,0.001,0.0009,-0.003,-0.003,-0.0031,-0.0031,-0.0101,-0.0103,-0.0106,-0.011,0,0,-0.0113,-0.0114,0,0,0,0,0,0,0,0,0.0046,0.0044,0.0032,0.0029,0.0027,-0.0003,-0.001,-0.0031,-0.003,-0.0011,-0.0031,-0.0032,-0.007,-0.0075,-0.0084,-0.0114,-0.0117,-0.0113,-0.0115,-0.0116,-0.0116,0,0,0,0,0,0,0,0.0048,0.0045,0.0033,0.0031,0.0028,0.001,0.0006,-0.0015,-0.0039,-0.0013,-0.0015,-0.0016,-0.0072,-0.0082,-0.0086,-0.0118,-0.0113,-0.0115,-0.0117,-0.0118,-0.015,-0.0149,0,0,0,0,0,0,0.0059,0.0047,0.0035,0.0032,0.0038,0.001,0.0006,0.0005,-0.0039,-0.0045,-0.0016,-0.0018,-0.0077,-0.0083,-0.0089,-0.0082,-0.0116,-0.0118,-0.0119,-0.0151,-0.015,-0.0149,0,0,0,0,0,0,0.0059,0.0058,0.0036,0.004,0.0036,0.0011,0.001,0.0005,-0.0003,-0.004,-0.0048,-0.0017,-0.0078,-0.0085,-0.0102,-0.0086,-0.0119,-0.0121,-0.0151,-0.015,-0.015,-0.0079,0,0,0,0,0,0,0.006,0.0059,0.006,0.0041,0.0037,0.0037,0.0011,0.0004,-0.0002,-0.0005,-0.0044,-0.0051,-0.0079,-0.0098,-0.0104,-0.009,-0.0123,-0.0152,-0.0151,-0.015,-0.0082,-0.0076,-0.0071,0,0,0,0,0,0.0061,0.0068,0.006,0.0058,0.004,0.0038,0.0034,0.0012,-0.0001,0.0002,-0.0026,-0.005,-0.0096,-0.01,-0.0107,-0.0093,-0.0152,-0.0151,-0.015,-0.0085,-0.0077,-0.0071,0,0,0,0,0,0,0.0076,0.0065,0.0055,0.0059,0.0053,0.0032,0.0032,0.0019,-0.0001,-0.0007,-0.0044,-0.0053,-0.0063,-0.0087,-0.009,-0.01,-0.0127,-0.0128,-0.0075,-0.0069,-0.0063,-0.0047,-0.0125,0,0,0,0,0,0.0081,0.0082,0.0071,0.0074,0.0074,0.0054,0.0049,0.0037,0.0019,0.0009,-0.0016,-0.0044,-0.0063,-0.0073,-0.0097,-0.01,-0.0126,-0.0096,-0.009,-0.0085,-0.0077,-0.0101,-0.0097,-0.0145,-0.0145,-0.0145,0,0,0.0087,0.0082,0.0081,0.0077,0.0068,0.0079,0.005,0.0049,0.0057,0.0005,0.0005,-0.0027,-0.0061,-0.0066,-0.0072,-0.0084,-0.0085,-0.0083,-0.0079,-0.0074,-0.0099,-0.0095,-0.0091,-0.0144,-0.0144,-0.0145,0,0,0.0108,0.0097,0.0108,0.0108,0.0104,0.0096,0.0101,0.0086,0.0079,0.0074,0.004,0.0021,-0.0009,-0.0027,-0.004,-0.0016,-0.0056,-0.0025,0.002,-0.0003,0.0001,0.0004,-0.002,-0.002,-0.0019,-0.0019,-0.0018,0,0.0117,0.0129,0.0112,0.0127,0.0135,0.0111,0.0133,0.0125,0.0106,0.0108,0.0083,0.0044,0.0012,0.0012,0.0018,-0.0002,-0.0024,-0.0002,0.0006,0.0008,0.001,-0.0016,-0.0016,-0.0015,-0.0015,-0.0016,-0.0016,0,0.0147,0.0158,0.0168,0.018,0.0187,0.02,0.0195,0.0201,0.0187,0.0173,0.0165,0.0118,0.0098,0.0084,0.0056,0.0061,0.0037,0.0014,-0.0009,0.0019,-0.001,-0.0012,-0.001,-0.0011,-0.0012,-0.0013,0,0,0.0173,0.0186,0.0192,0.0212,0.0217,0.0233,0.0254,0.0269,0.0291,0.0255,0.0273,0.0228,0.0196,0.0179,0.0141,0.0119,0.0109,0.0077,0.0075,0.0059,0.0057,0.0036,0.0032,0.0086,0.0086,0.0086,0.0032,0,0.0206,0.0244,0.0243,0.0292,0.0317,0.0314,0.0343,0.0351,0.0342,0.0352,0.0303,0.0294,0.0235,0.0225,0.0196,0.0133,0.0107,0.0125,0.0027,0.0024,0.0007,0.0031,0.005,0.0003,0.003,0.0029,0.0029,0,0.0245,0.0267,0.0311,0.0361,0.0373,0.0399,0.0448,0.0466,0.0469,0.0461,0.0437,0.0393,0.0359,0.03,0.021,0.0224,0.0148,0.0092,0.0088,0.0044,0.0001,-0.0023,-0.0002,0.0026,0.0026,0.0026,0.0026,0,0.0281,0.0325,0.0363,0.0376,0.0419,0.045,0.0477,0.0497,0.0535,0.0523,0.0546,0.048,0.0464,0.0361,0.0238,0.0225,0.0133,0.0099,0.0008,0.0005,-0.001,-0.0014,0.0032,0.0032,0.0032,0.0032,0.0033,0,0.0324,0.0363,0.0384,0.0409,0.0478,0.0489,0.0564,0.0579,0.0616,0.0676,0.0601,0.063,0.0478,0.0406,0.0274,0.0142,0.0158,0.0023,-0.0006,0.0015,0.0014,0.0006,0.0004,0.003,0.0031,0.0031,0.0032,0,0.0363,0.0371,0.0427,0.0473,0.0496,0.0544,0.0633,0.0693,0.0709,0.0787,0.079,0.0748,0.0652,0.0491,0.0328,0.0206,0.0066,0.001,0.0043,0.0019,-0.0057,-0.0055,-0.009,-0.0091,-0.0092,-0.0093,-0.0093,0,0.0386,0.041,0.0471,0.0515,0.054,0.0614,0.0682,0.0732,0.0805,0.0869,0.092,0.085,0.0824,0.0572,0.0331,0.01,0.0064,-0.0036,-0.0061,-0.0043,-0.0068,-0.0064,-0.0061,-0.0056,-0.0056,-0.0056,-0.0056,0,0.0431,0.0445,0.0489,0.0572,0.0645,0.0742,0.0838,0.0916,0.0991,0.1059,0.1128,0.1105,0.0873,0.0646,0.0321,0.0158,-0.0,-0.0049,-0.0032,-0.0026,-0.0015,-0.0038,-0.0035,-0.0058,-0.0058,-0.0058,-0.0058,-0.0058,0.0467,0.0504,0.0556,0.0643,0.0733,0.0861,0.0962,0.1072,0.1198,0.1319,0.1282,0.1263,0.0989,0.0584,0.0288,-0.0022,-0.0004,-0.011,-0.0107,-0.0105,-0.009,-0.008,-0.0133,-0.0134,-0.0134,-0.0134,-0.0134,0,0.0509,0.0551,0.063,0.0742,0.0855,0.0896,0.1069,0.1178,0.1337,0.1427,0.1478,0.1228,0.0956,0.0634,0.0182,-0.0088,-0.0116,-0.0182,-0.0149,-0.0145,-0.0141,-0.0127,-0.0182,-0.0183,-0.0184,-0.0184,0,0,0.0533,0.0604,0.0643,0.0821,0.0915,0.1086,0.1196,0.1346,0.145,0.1549,0.1544,0.1483,0.108,0.0746,0.0364,0.01,0.004,0.0038,0.0107,0.0197,0.0204,-0.0068,-0.0037,0,0,0,0,0]}],[{"header":{"parameterUnit":"m.s-1","parameterCategory":2,"la1":30.2991,"la2":30.254,"lo1":-89.0895,"lo2":-89.0444,"dy":0.0017,"dx":0.0017,"nx":28,"ny":28,"refTime":"2025-03-15T21:00:00:Z","depth":"4","parameterNumber":2,"parameterNumberName":"U-component_of_CURRENTS"},"data":[0,0,0,0,0,0,0,0,0,0,0,0,0,0,0,0,0,0,0,0,0,0,0,0,0,0,0,0,0,0,0,0,0,0,0,0,0,0,0,0,0,0,0,0,0,0,0,0,0,0,0,0,0,0,0,0,0,0,0.107,0.107,0,0.1097,0.1098,0.1098,0.1138,0.1139,0.1139,0.114,0.1228,0.123,0.1232,0,0,0,0,0,0,0,0,0,0,0,0,0,0.1119,0.1118,0.107,0.107,0.107,0.1097,0.1098,0.1099,0.1138,0.1139,0.1139,0.114,0.1228,0.123,0.1232,0,0,0,0,0,0,0,0,0,0,0,0,0,0.112,0.1118,0.107,0.1091,0.1093,0.1097,0.1098,0.1099,0.1138,0.1139,0.1139,0.114,0.1227,0.123,0.1233,0.1239,0,0,0.1242,0.1243,0,0,0,0,0,0,0,0,0.112,0.1119,0.1088,0.109,0.1092,0.1112,0.1147,0.1148,0.1138,0.1125,0.114,0.114,0.1193,0.1198,0.1206,0.1243,0.1247,0.1242,0.1244,0.1245,0.1246,0,0,0,0,0,0,0,0.112,0.1118,0.1084,0.1088,0.109,0.1121,0.1122,0.1148,0.1158,0.1126,0.1128,0.1126,0.1195,0.1203,0.1208,0.1248,0.1242,0.1244,0.1246,0.1247,0.1359,0.136,0,0,0,0,0,0,0.1105,0.1117,0.1083,0.1085,0.1104,0.112,0.112,0.1108,0.1157,0.1164,0.1125,0.1127,0.1197,0.1205,0.1212,0.1291,0.1245,0.1248,0.1249,0.1358,0.1359,0.136,0,0,0,0,0,0,0.1106,0.1102,0.1082,0.11,0.1099,0.1117,0.1103,0.1108,0.1158,0.1155,0.1164,0.1175,0.1198,0.1207,0.1255,0.1292,0.1249,0.1252,0.1356,0.1358,0.136,0.1405,0,0,0,0,0,0,0.1107,0.1102,0.1109,0.1099,0.1098,0.1105,0.1102,0.1108,0.1151,0.1156,0.12,0.1206,0.1199,0.1251,0.1258,0.1295,0.1254,0.1355,0.1357,0.1359,0.1402,0.1408,0.1413,0,0,0,0,0,0.1109,0.111,0.1108,0.1105,0.1099,0.1106,0.111,0.1127,0.1154,0.1177,0.1202,0.1207,0.127,0.1254,0.1263,0.1301,0.1354,0.1356,0.1359,0.1399,0.1407,0.1413,0,0,0,0,0,0,0.1144,0.1113,0.1112,0.1106,0.1115,0.1112,0.1135,0.1156,0.1196,0.1208,0.1223,0.123,0.1291,0.1288,0.127,0.1338,0.1313,0.1318,0.1341,0.1348,0.1354,0.1378,0.1257,0,0,0,0,0,0.1149,0.1139,0.1125,0.1127,0.1132,0.1147,0.1162,0.117,0.1191,0.1212,0.1241,0.1269,0.1301,0.1319,0.1343,0.138,0.1393,0.1409,0.1415,0.142,0.1444,0.1477,0.1488,0.1369,0.1369,0.1369,0,0,0.1166,0.1146,0.1145,0.1134,0.1144,0.1155,0.116,0.1184,0.1208,0.1215,0.1275,0.1302,0.1319,0.1358,0.1384,0.1363,0.1461,0.1423,0.1427,0.145,0.1481,0.1493,0.1503,0.1371,0.137,0.137,0,0,0.1181,0.1177,0.1173,0.1175,0.118,0.1188,0.1207,0.1224,0.1251,0.1296,0.1312,0.1362,0.1406,0.142,0.1434,0.1489,0.1499,0.15,0.1541,0.1572,0.1582,0.1591,0.1624,0.1636,0.1491,0.1491,0.1491,0,0.1209,0.1188,0.1182,0.1178,0.1184,0.121,0.1221,0.125,0.1286,0.1317,0.1322,0.1421,0.1435,0.1494,0.1509,0.1505,0.1525,0.1512,0.158,0.1589,0.1598,0.1629,0.1642,0.1493,0.1493,0.1493,0.1493,0,0.1203,0.1206,0.1211,0.1207,0.1221,0.1236,0.1254,0.1301,0.1345,0.137,0.1457,0.1481,0.1538,0.155,0.1549,0.1623,0.1619,0.1591,0.1563,0.1613,0.1642,0.1655,0.1497,0.1496,0.1495,0.1495,0,0,0.1223,0.1207,0.1217,0.1217,0.1234,0.1243,0.1296,0.1345,0.1401,0.1453,0.1519,0.1588,0.1622,0.1641,0.1654,0.1684,0.1757,0.1671,0.1671,0.1705,0.1839,0.1727,0.173,0.1742,0.1744,0.1746,0.1835,0,0.1231,0.1218,0.1218,0.1243,0.1241,0.1278,0.1331,0.1382,0.1437,0.1507,0.1561,0.1633,0.1647,0.1687,0.1723,0.1752,0.1793,0.1737,0.1786,0.1788,0.1683,0.1741,0.1754,0.1844,0.1847,0.1849,0.185,0,0.1231,0.1216,0.122,0.125,0.1261,0.1296,0.1381,0.142,0.1517,0.1568,0.165,0.1694,0.1778,0.1763,0.1866,0.1833,0.1856,0.1871,0.1874,0.1767,0.1698,0.1784,0.1872,0.187,0.1869,0.1867,0.1866,0,0.1222,0.1234,0.1234,0.1235,0.127,0.1314,0.136,0.1452,0.1506,0.161,0.1674,0.1766,0.1832,0.1877,0.1933,0.1907,0.2026,0.1975,0.1905,0.1897,0.1951,0.194,0.2054,0.2054,0.2053,0.2053,0.2053,0,0.1211,0.1225,0.1238,0.1231,0.1276,0.1308,0.1386,0.1455,0.1558,0.1619,0.1708,0.1779,0.1869,0.1942,0.1961,0.1981,0.2054,0.1939,0.1918,0.1966,0.1956,0.1959,0.1947,0.2057,0.2056,0.2055,0.2055,0,0.1194,0.1202,0.1191,0.1227,0.1262,0.1284,0.1394,0.1446,0.1565,0.1644,0.1687,0.1824,0.1917,0.1994,0.2071,0.2019,0.2037,0.2027,0.2103,0.208,0.188,0.187,0.1943,0.194,0.1937,0.1935,0.1933,0,0.1177,0.1169,0.1174,0.1177,0.1199,0.1257,0.1312,0.1436,0.1479,0.1655,0.1678,0.1832,0.1904,0.1944,0.2013,0.2052,0.2031,0.2021,0.1932,0.19,0.1873,0.1866,0.1859,0.1929,0.1929,0.1928,0.1927,0,0.1143,0.1144,0.1119,0.1115,0.1153,0.1184,0.1264,0.1308,0.1437,0.1567,0.1654,0.1719,0.1821,0.188,0.1941,0.1954,0.2005,0.1993,0.1997,0.1914,0.1884,0.1858,0.1854,0.1918,0.1919,0.192,0.1921,0,0.1118,0.108,0.1051,0.1037,0.1075,0.1089,0.1146,0.1216,0.1295,0.1492,0.1515,0.1673,0.1802,0.1832,0.1874,0.1893,0.1855,0.1773,0.1788,0.1799,0.1708,0.1647,0.1611,0,0,0,0,0,0.1091,0.1034,0.0996,0.0958,0.0985,0.1015,0.1104,0.1162,0.1307,0.1335,0.1429,0.1516,0.1609,0.1687,0.168,0.1795,0.1849,0.1774,0.1758,0.1868,0.1878,0.1784,0,0,0,0,0,0,0.1064,0.1028,0.0958,0.0898,0.088,0.0912,0.0964,0.1058,0.1081,0.1241,0.1307,0.1421,0.1539,0.1614,0.1655,0.1676,0.1632,0.1873,0.1869,0.1862,0.1871,0.188,0.1786,0,0,0,0,0]},{"header":{"parameterUnit":"m.s-1","parameterCategory":2,"la1":30.2991,"la2":30.254,"lo1":-89.0895,"lo2":-89.0444,"dy":0.0017,"dx":0.0017,"nx":28,"ny":28,"refTime":"2025-03-15T21:00:00:Z","depth":"4","parameterNumber":3,"parameterNumberName":"V-component_of_CURRENTS"},"data":[0,0,0,0,0,0,0,0,0,0,0,0,0,0,0,0,0,0,0,0,0,0,0,0,0,0,0,0,0,0,0,0,0,0,0,0,0,0,0,0,0,0,0,0,0,0,0,0,0,0,0,0,0,0,0,0,0,0,0.0094,0.0094,0,0.0082,0.0082,0.0082,0.0063,0.0063,0.0062,0.0062,0.0015,0.0014,0.0013,0,0,0,0,0,0,0,0,0,0,0,0,0,0.0086,0.0086,0.0094,0.0094,0.0094,0.0082,0.0082,0.0082,0.0063,0.0063,0.0062,0.0062,0.0015,0.0014,0.0012,0,0,0,0,0,0,0,0,0,0,0,0,0,0.0082,0.0086,0.0094,0.0084,0.0083,0.0082,0.0082,0.0082,0.0063,0.0063,0.0062,0.0062,0.0015,0.0014,0.0012,0.001,0,0,0.0008,0.0007,0,0,0,0,0,0,0,0,0.0083,0.0083,0.0086,0.0085,0.0084,0.0075,0.0062,0.0056,0.0063,0.007,0.0062,0.0062,0.0032,0.0029,0.0027,0.0008,0.0006,0.0007,0.0006,0.0006,0.0005,0,0,0,0,0,0,0,0.0083,0.0083,0.0089,0.0086,0.0085,0.0075,0.0074,0.0061,0.0052,0.0069,0.0068,0.0068,0.0031,0.0029,0.0026,0.0005,0.0007,0.0006,0.0005,0.0005,-0.002,-0.002,0,0,0,0,0,0,0.0088,0.0083,0.0089,0.0088,0.0083,0.0076,0.0074,0.0077,0.0053,0.0049,0.0069,0.0067,0.0031,0.0028,0.0024,0.0026,0.0006,0.0004,0.0003,-0.002,-0.002,-0.002,0,0,0,0,0,0,0.0088,0.0088,0.009,0.0086,0.0086,0.0076,0.0079,0.0077,0.0074,0.0053,0.0048,0.0067,0.0031,0.0026,0.0015,0.0023,0.0004,0.0002,-0.0021,-0.002,-0.002,0.0026,0,0,0,0,0,0,0.0087,0.0089,0.0091,0.0087,0.0086,0.0093,0.008,0.0077,0.0075,0.0073,0.005,0.0046,0.003,0.0018,0.0014,0.0021,0.0001,-0.0021,-0.002,-0.002,0.0024,0.0028,0.0031,0,0,0,0,0,0.0087,0.0095,0.0091,0.0092,0.009,0.0093,0.0092,0.0083,0.0075,0.0077,0.0062,0.0046,0.0018,0.0017,0.0012,0.0019,-0.0021,-0.0021,-0.002,0.0022,0.0027,0.0031,0,0,0,0,0,0,0.0092,0.0093,0.009,0.0097,0.0096,0.009,0.0093,0.0085,0.0076,0.0073,0.005,0.0045,0.0038,0.0022,0.0021,0.0013,-0.0005,-0.0005,0.0029,0.0033,0.0037,0.0046,-0.0,0,0,0,0,0,0.0095,0.01,0.0099,0.0105,0.0107,0.01,0.0099,0.0094,0.0086,0.0081,0.0065,0.0049,0.0037,0.003,0.0016,0.0012,-0.0011,0.0013,0.0017,0.002,0.0024,-0.0005,-0.0004,-0.0018,-0.0018,-0.0018,0,0,0.0098,0.01,0.0102,0.0106,0.0105,0.0116,0.0098,0.0101,0.0109,0.0077,0.008,0.006,0.0039,0.0035,0.0031,0.0023,0.0012,0.002,0.0023,0.0026,-0.0004,-0.0003,-0.0002,-0.0017,-0.0017,-0.0017,0,0,0.0111,0.011,0.0121,0.0124,0.0127,0.0126,0.0129,0.0125,0.0122,0.0121,0.0101,0.0086,0.0069,0.0057,0.0049,0.0062,0.003,0.0057,0.0083,0.0055,0.0056,0.0057,0.003,0.0028,0.0059,0.0059,0.006,0,0.0116,0.013,0.0124,0.0138,0.0148,0.0134,0.0154,0.015,0.0141,0.0143,0.0128,0.0103,0.0081,0.0079,0.0083,0.007,0.0049,0.007,0.006,0.006,0.006,0.0033,0.003,0.0062,0.0061,0.0061,0.0061,0,0.0137,0.0151,0.016,0.0176,0.0185,0.0198,0.0199,0.0203,0.0196,0.0187,0.018,0.0149,0.0136,0.0124,0.0107,0.01,0.0083,0.0068,0.0051,0.0064,0.0034,0.003,0.0065,0.0064,0.0063,0.0063,0,0,0.0153,0.0172,0.0178,0.0199,0.0209,0.0225,0.024,0.0253,0.0268,0.0242,0.0252,0.0221,0.0198,0.0186,0.0159,0.0132,0.0108,0.0102,0.01,0.0079,0.0046,0.0042,0.0037,0.009,0.0089,0.0089,0.0026,0,0.0178,0.0212,0.0216,0.026,0.0283,0.0285,0.0308,0.0314,0.0308,0.031,0.027,0.0265,0.0224,0.0219,0.0185,0.0129,0.0099,0.0126,0.0034,0.0031,0.0029,0.0033,0.0088,0.0023,0.0022,0.0022,0.0021,0,0.0207,0.0229,0.0268,0.0317,0.0329,0.0353,0.0394,0.0408,0.0401,0.0394,0.037,0.0336,0.0298,0.0259,0.0167,0.0186,0.0122,0.0071,0.0068,0.0046,0.002,0.0006,0.0013,0.0014,0.0015,0.0015,0.0016,0,0.0233,0.0276,0.0311,0.0324,0.0365,0.0394,0.042,0.0432,0.0461,0.0443,0.0452,0.0392,0.0371,0.0282,0.0177,0.0172,0.0068,0.0049,-0.0016,-0.0017,-0.0016,-0.0016,-0.0018,-0.0018,-0.0018,-0.0018,-0.0017,0,0.0262,0.03,0.0328,0.0351,0.0413,0.0429,0.0492,0.0502,0.0524,0.0554,0.0496,0.05,0.0376,0.0302,0.0195,0.008,0.0081,-0.001,-0.0033,0.0005,0.0008,-0.0019,-0.0018,-0.002,-0.0019,-0.0019,-0.0019,0,0.0288,0.0302,0.0353,0.0401,0.0426,0.047,0.0551,0.0595,0.0602,0.0637,0.0637,0.0583,0.0487,0.0357,0.021,0.0117,-0.0002,-0.0045,0.0009,-0.001,-0.0075,-0.0071,-0.0119,-0.012,-0.012,-0.0121,-0.0121,0,0.0304,0.0327,0.0388,0.0427,0.0453,0.0524,0.0583,0.0627,0.0672,0.0686,0.0704,0.0634,0.0575,0.0376,0.0225,0.0025,-0.0008,-0.0076,-0.0081,-0.0067,-0.0085,-0.008,-0.0075,-0.0122,-0.0122,-0.0122,-0.0123,0,0.0334,0.035,0.0387,0.0458,0.0525,0.0609,0.0686,0.073,0.0772,0.0781,0.0768,0.0666,0.0557,0.039,0.0235,0.0087,-0.0037,-0.0082,-0.0082,-0.0088,-0.0071,-0.0087,-0.0082,-0.0124,-0.0124,-0.0124,-0.0124,0,0.0356,0.0381,0.0422,0.0491,0.0576,0.0664,0.071,0.0769,0.0818,0.0828,0.0819,0.0699,0.063,0.0422,0.0277,0.0134,0.0092,0.0033,0.0026,0.0026,0.0081,0.0123,0.0114,0,0,0,0,0,0.0374,0.0399,0.0458,0.0539,0.0625,0.0677,0.0769,0.0807,0.0846,0.0848,0.0839,0.0737,0.0533,0.0449,0.0308,0.025,0.0055,0.0076,-0.002,-0.0135,-0.0133,-0.0094,0,0,0,0,0,0,0.0383,0.0428,0.0452,0.0564,0.0629,0.0735,0.0795,0.0824,0.083,0.0838,0.0742,0.0689,0.05,0.0617,0.0303,0.0259,0.0174,-0.0016,-0.0019,-0.0136,-0.0134,-0.0132,-0.0092,0,0,0,0,0]}]]